STARLINK-35965, 66631

Orbit data source: Space-Track

STARLINK-35965, 66631 is a payload satellite owned by SpaceX/Seattle (US) in LEO that was launched on Sun, 23 Nov 2025 UTC via an FALCON 9 launch vehicle from the Air Force Western Test Range (AFWTR). Payload-class satellites include a variety of spacecraft equipped with specific instruments for various scientific and technological missions. These include communications satellites like Starlink; space stations such as the ISS; scientific satellites like the Hubble; Earth observation satellites from companies like Planet Labs, Umbra, and HawkEye 360; GPS; miniature CubeSats for education and research; and military/defense satellites.

Loading next visibility...
Identifier
66631, 2025-271Q
Orbit
LEO
Country
Flag of USUS
Related business
Manufacturer
SpaceX/Seattle
Mission
Operational Commercial Communications
Bus & Motor
STARLINK V2MO, Unknown motor
Mass
575 kg wet, ~530 kg dry
Launch date (UTC)
2025-11-23 (10 months ago)
Launch vehicle
FALCON 9
Launch site
Air Force Western Test Range (AFWTR)
Object type
Payload
Rocket body
Debris
Shape & HBR
Box + 1 Pan, 17.7 m
Radar Cross Section
41.120 m², Large (>1 m²)

Expand to show TLE details & history
Last TLE update: 13 hours ago

TLE from 13 hours ago
0 STARLINK-35965
1 66631U 25271Q   26265.42678329  .00006968  00000-0  21719-3 0  9993
2 66631  53.1599 300.7434 0001158  68.9905 291.1222 15.34396104 47757
Epoch: 2026-09-22T10:14Z
TLE epoch observation values (Epoch: 2026-09-22T10:14:34.076Z)
Latitude
0.00004°
Longitude
145.80902°
Altitude
463.331 km
Speed
7.636 km/s
True Right ascension
20h 02m 58s
True Declination
0° 00' 00"
Sunlit
Object was in full shadow at epoch
Visualization orbit readout
Latitude
Unknown
Longitude
Unknown
Altitude
Unknown
Speed
Unknown
Apparent Right ascension
Unknown
Apparent Declination
Unknown
Sunlit
N/A
Visualization observer readout
Local Sidereal Time
16:27:28
Azimuth
Unknown
Elevation
Unknown
Doppler factor
Unknown
Orbital elements
Apogee altitude
463.764 km
Perigee altitude
462.18 km
Semi-major axis
6,841.109 km
Eccentricity
0.00012
Inclination
53.1599°
RAAN
300.7434°
Arg. of periapsis
68.9905°
True anomaly
291.10982°
Mean anomaly
291.1222°
Eccentric anomaly
291.11601°
Mean motion
3.83578 °/min
Orbital period
93.85 mins
BSTAR
0.00021719
Loading maneuver chart data...
Computing Atmospheric mass density...
Loading historical data...
Loading historical data...
Loading historical data...
Loading historical data...
Loading historical data...
Loading historical data...
Loading historical data...

Documentation

Showing up to 5 results
|